Wind_Speed
34 34 32 30 29 28 27 25 22 21 20 19 17 17 16 15 15 14 15 15 14 13 12 11 10 9 8 8 8 8 8 9 9 9 9 10 11 9 8 7 6 5
35 35 34 32 31 29 28 27 25 23 22 20 18 18 18 17 15 15 15 15 15 14 13 13 11 10 10 9 9 9 9 9 9 10 9 9 11 11 9 8 7 7
36 36 35 34 33 31 30 29 27 25 23 22 21 19 18 18 17 16 16 15 15 15 15 14 13 12 11 11 10 10 10 10 10 10 9 9 10 11 10 9 9 9
37 37 36 35 34 33 31 30 29 27 25 24 23 22 20 19 18 17 16 16 16 16 16 15 15 14 12 12 11 11 12 12 11 10 9 9 9 9 9 10 9 9
38 38 38 36 35 34 33 32 31 29 28 27 25 24 23 21 20 19 18 17 16 16 16 16 16 15 14 13 13 13 13 12 12 12 10 9 10 9 9 9 10 10
39 39 38 38 36 35 34 33 33 32 30 29 27 26 25 24 23 21 20 19 17 17 17 16 17 16 15 15 15 14 14 13 13 14 12 10 10 10 10 10 10 10
39 39 38 38 36 36 36 35 34 33 32 30 29 27 27 26 25 24 23 21 19 18 18 17 17 17 17 17 16 16 15 14 14 15 14 12 12 11 11 11 10 10
37 37 38 38 36 35 36 36 35 34 33 31 30 28 27 27 27 26 25 23 22 20 19 19 18 18 17 17 17 17 16 15 14 16 16 15 14 13 13 12 12 11
35 34 35 36 34 33 34 35 34 35 34 33 31 30 28 28 27 26 25 24 23 22 20 20 20 19 19 18 18 18 17 17 16 16 17 17 16 15 14 13 13 13
33 32 31 32 32 31 32 32 30 32 35 34 32 30 30 29 28 27 26 25 24 23 22 21 20 20 20 20 19 18 18 18 18 18 18 18 17 16 15 14 14 14
31 29 28 30 30 29 31 31 28 28 32 34 33 31 30 30 30 28 27 26 26 25 25 24 22 21 21 21 21 21 20 19 19 19 19 18 18 18 17 16 16 15
29 29 29 30 31 30 29 29 28 27 30 33 34 32 30 30 31 31 30 29 28 27 27 26 25 23 23 23 23 22 22 21 20 20 20 19 19 19 18 18 17 17
29 31 31 29 31 32 30 28 28 28 28 32 33 33 32 29 29 32 33 32 31 29 28 28 28 27 25 24 24 24 24 23 22 21 20 20 20 19 18 18 17 17
31 32 32 30 30 33 33 30 28 27 28 30 32 33 33 30 28 30 32 33 32 31 31 29 29 29 28 27 26 26 25 25 24 23 21 21 21 21 20 18 18 18
33 30 29 30 29 32 35 33 29 28 28 29 31 33 31 30 29 28 29 31 32 32 32 31 30 31 31 30 29 28 27 25 25 24 23 21 21 21 20 20 20 19
35 31 28 29 31 32 35 35 31 28 27 29 32 32 29 30 32 30 28 29 31 33 33 32 33 34 34 33 31 30 29 26 26 26 25 23 22 22 21 21 21 20
34 32 30 31 33 33 32 33 31 28 27 30 32 32 31 32 33 33 31 29 28 30 32 33 36 37 38 37 35 33 31 28 27 27 27 25 23 22 22 21 21 21
31 30 31 32 33 32 32 32 30 27 27 30 31 32 32 33 31 32 33 31 28 28 30 33 37 40 39 38 37 36 33 31 28 25 25 25 24 23 23 22 21 21
30 28 30 31 32 33 32 31 29 28 29 29 29 29 30 32 32 32 33 32 29 29 30 31 34 38 40 39 39 37 35 33 30 25 23 23 24 23 23 23 23 22
29 28 29 29 31 33 31 29 29 30 29 27 26 25 27 32 33 30 30 33 32 32 33 32 34 37 39 39 38 38 36 35 32 28 24 23 24 25 24 24 24 24
27 28 29 29 29 29 29 28 28 29 28 26 24 24 27 31 33 30 30 33 34 33 33 33 35 38 38 38 38 37 36 35 34 31 26 24 25 26 27 27 27 26
23 25 26 27 26 25 26 27 26 27 29 27 24 23 24 27 29 29 29 31 32 32 31 31 34 36 38 38 38 37 35 34 34 34 30 26 24 25 28 30 30 29
16 21 23 23 23 23 24 25 25 27 27 26 25 24 23 23 25 27 28 29 30 30 31 32 33 35 37 38 37 36 35 34 35 36 35 31 27 26 27 29 30 31
14 16 21 22 21 22 24 24 24 25 25 25 25 25 25 24 24 25 26 27 28 29 30 32 33 34 37 38 37 36 35 35 36 36 36 35 32 29 28 28 30 32
16 15 18 22 23 23 24 24 23 23 24 24 25 26 25 25 24 24 24 25 26 28 31 32 32 32 34 36 37 36 35 36 37 36 34 34 33 31 29 30 31 34
16 16 17 21 24 24 24 24 24 24 24 24 25 25 25 25 25 24 24 25 25 26 28 31 31 30 31 34 36 36 36 36 37 36 34 33 32 31 29 29 31 34
Wind_Direction
218 220 222 225 227 230 232 234 236 237 238 239 238 237 238 237 233 229 227 226 223 221 220 220 221 224 230 234 232 233 239 240 237 236 236 239 241 242 245 249 249 242
218 220 223 225 228 230 232 233 234 235 237 240 241 243 244 243 241 237 233 231 228 223 220 220 223 228 234 237 235 235 242 246 244 243 243 242 242 241 243 245 244 241
217 219 222 224 227 230 230 230 232 233 235 239 242 245 246 245 245 243 238 236 233 227 222 219 222 229 235 238 238 238 242 246 246 247 248 245 243 243 243 243 242 240
217 219 222 224 227 229 230 229 230 231 232 235 239 242 244 246 248 247 244 240 236 232 227 223 224 228 233 236 238 240 242 245 246 248 250 247 244 244 244 243 240 236
218 220 221 223 226 228 230 230 230 230 231 234 237 240 242 245 247 250 249 246 241 236 232 229 228 228 230 234 235 238 242 242 243 247 250 248 244 242 243 244 241 233
218 220 222 223 225 227 228 229 230 231 232 234 236 238 240 242 245 249 251 250 247 240 234 231 231 229 229 233 234 236 239 238 239 244 249 250 247 242 241 246 245 238
217 220 221 223 224 226 228 230 231 232 233 234 236 238 239 240 243 246 249 251 250 244 237 234 235 233 231 234 236 237 240 241 241 242 244 248 250 246 245 248 248 243
216 218 220 221 222 224 227 229 231 233 233 234 235 237 238 239 241 244 246 248 249 246 242 239 239 238 235 236 238 239 240 241 241 242 241 243 247 249 248 248 248 245
214 215 218 219 219 221 225 227 230 233 233 234 234 235 237 238 238 240 242 245 247 246 245 243 241 240 238 239 239 240 240 239 240 242 241 239 242 245 246 246 246 246
211 213 214 215 216 219 222 224 225 230 233 234 233 232 234 235 235 236 239 242 244 245 246 245 243 241 240 240 241 241 241 241 242 244 243 241 240 241 241 241 242 244
209 209 209 212 213 216 220 221 220 224 231 233 231 229 231 233 233 233 236 239 241 243 245 245 244 243 242 241 241 241 242 243 244 246 245 245 244 244 243 242 241 241
206 207 209 211 213 215 218 219 218 220 226 232 232 229 229 230 232 233 235 237 240 242 243 245 245 244 244 243 241 241 242 243 244 247 248 247 247 247 245 244 243 243
204 207 209 209 212 216 217 217 218 220 223 229 232 232 231 229 229 233 235 237 239 241 242 244 245 244 244 244 241 239 241 243 242 244 247 248 249 248 246 243 243 245
207 209 210 210 212 217 219 218 218 219 222 227 231 233 233 231 229 232 235 236 237 239 241 242 243 244 244 244 242 239 239 241 242 242 243 246 250 250 249 246 244 247
212 210 210 210 211 216 220 220 218 220 222 225 229 232 232 232 232 231 233 235 236 238 240 240 241 244 244 243 242 240 239 239 241 243 242 243 247 250 250 249 247 246
217 214 212 211 212 217 221 220 218 218 219 223 228 230 229 231 233 233 232 234 236 238 239 239 240 244 246 246 244 242 241 239 240 244 244 243 244 246 248 249 249 248
217 216 215 216 217 218 219 219 217 215 216 222 226 228 227 229 232 233 233 233 234 236 238 239 241 244 246 248 247 245 243 241 241 244 245 244 243 243 245 247 248 249
215 215 216 218 219 218 218 218 216 213 215 219 223 224 226 228 229 231 233 232 230 232 235 237 242 246 247 248 248 248 245 242 240 240 241 242 241 241 243 244 244 246
215 215 215 217 219 218 218 217 214 214 216 219 220 221 223 226 227 228 231 230 228 230 232 235 240 245 248 248 248 249 247 243 239 236 236 238 239 240 241 241 243 244
218 217 216 217 219 219 217 215 214 216 218 218 219 217 218 224 226 225 227 229 230 231 234 235 239 244 247 248 248 248 247 245 241 237 237 238 238 240 240 240 242 242
222 221 219 219 219 217 216 215 214 217 218 217 217 216 217 224 226 223 225 229 231 232 234 237 240 243 246 247 248 247 246 245 242 238 237 238 239 240 240 242 244 243
227 225 222 221 219 214 215 215 214 217 218 216 217 219 221 225 226 224 224 228 230 230 231 236 240 243 245 246 247 247 244 243 242 240 238 237 237 237 240 244 246 244
250 233 225 223 219 215 215 216 216 218 219 217 217 221 224 224 224 225 226 228 230 229 229 234 239 242 244 246 246 245 241 240 240 240 239 237 237 237 239 243 245 244
300 259 235 225 222 220 220 219 219 219 219 218 218 220 225 226 226 227 228 229 229 229 230 234 239 242 245 245 245 243 240 238 239 239 239 238 238 238 239 241 243 245
317 293 256 234 226 225 225 223 221 220 218 218 220 222 225 228 228 229 229 230 231 232 234 237 239 242 245 245 245 243 239 238 237 236 236 237 238 238 238 240 243 246
319 310 283 251 233 228 227 224 222 222 220 219 221 224 225 227 228 228 230 232 233 233 235 237 238 240 242 244 245 242 239 237 234 232 232 234 235 235 236 238 241 244
Height
838 840 842 844 845 847 849 851 853 855 857 858 860 861 862 864 865 866 868 869 870 871 872 873 873 874 875 876 877 878 878 879 879 880 881 881 882 883 883 884 884 884
836 838 840 842 844 845 847 849 851 853 855 857 859 860 861 863 864 865 867 868 869 870 871 872 872 873 874 875 876 877 877 878 879 879 880 880 881 881 882 883 883 883
834 836 838 840 841 843 845 847 849 851 854 855 857 859 860 861 863 864 865 866 867 869 870 871 872 872 873 874 875 875 876 877 878 878 878 879 880 880 881 881 882 882
831 833 835 837 839 841 843 845 847 849 851 853 855 857 858 860 861 862 863 865 866 867 868 869 870 871 872 873 873 874 875 876 877 877 877 878 878 879 879 880 881 881
828 831 833 835 837 839 841 843 844 846 848 851 852 854 856 858 859 860 862 863 864 866 867 868 869 870 871 871 872 873 874 875 875 875 876 876 877 878 878 879 879 880
826 828 830 833 835 837 839 840 842 844 846 848 850 852 854 856 857 859 860 861 862 864 865 866 867 868 869 870 870 871 872 873 873 874 874 875 875 876 877 877 878 878
822 825 827 830 832 834 836 838 839 841 843 845 847 849 851 853 855 857 858 859 860 862 863 864 865 866 867 868 869 869 870 871 871 872 873 873 874 875 875 876 876 876
820 822 824 827 829 832 833 835 837 838 841 843 845 847 849 851 853 854 856 857 858 859 861 862 863 864 865 866 866 867 868 869 869 870 871 872 872 873 873 874 874 875
817 819 822 824 827 829 830 832 834 836 838 840 842 844 846 848 850 852 853 855 856 857 858 859 860 861 862 863 864 865 865 866 867 868 868 869 870 871 871 872 872 873
814 816 819 821 824 826 827 830 832 834 835 837 840 842 843 845 847 849 850 852 853 854 855 857 858 859 860 861 861 862 863 864 864 865 866 867 868 868 869 870 870 871
811 814 816 818 820 822 824 827 829 831 832 834 837 839 840 842 843 845 847 848 850 851 852 854 855 856 857 858 859 860 860 861 862 862 863 864 865 866 867 867 868 868
808 810 812 814 816 819 821 824 826 828 830 831 833 836 837 839 840 842 843 845 846 848 849 851 852 853 855 856 857 858 858 859 859 860 860 861 862 863 864 864 865 866
804 806 808 810 813 815 818 820 823 825 826 828 830 832 834 836 837 838 839 841 843 844 846 847 849 850 851 853 854 855 856 856 857 857 858 858 859 859 860 861 862 863
800 802 805 807 810 812 814 817 819 821 823 825 827 829 831 833 834 835 836 837 839 841 842 844 845 846 848 849 850 852 853 853 854 855 855 856 856 857 857 858 859 860
797 800 802 805 807 808 811 813 816 818 820 822 824 826 828 830 831 833 834 835 836 837 838 840 841 842 843 844 846 847 849 850 851 852 853 853 854 854 855 855 855 856
795 798 800 802 804 805 807 810 812 815 817 819 820 822 824 826 828 829 831 831 833 834 835 836 837 837 838 840 842 843 845 846 847 848 849 850 851 851 852 852 852 853
792 795 797 799 801 802 804 806 809 811 813 815 816 818 821 822 823 825 826 828 829 830 831 832 832 832 833 835 837 839 841 843 844 845 845 846 847 848 848 849 849 850
790 792 794 796 798 800 802 803 806 808 810 811 813 814 816 818 820 821 822 824 825 826 826 827 827 827 829 831 833 835 837 839 840 841 842 842 844 844 845 845 846 846
788 790 791 793 795 796 799 801 803 805 806 807 809 811 813 814 815 817 817 819 820 821 821 822 822 822 824 826 828 830 832 835 836 837 838 838 839 840 841 842 842 843
786 787 788 790 792 794 796 798 800 801 802 804 806 808 809 810 811 813 814 814 816 816 816 817 817 817 819 821 823 825 828 830 832 834 834 835 835 836 837 838 838 839
783 784 786 787 789 791 793 795 796 798 799 801 803 804 805 805 806 808 809 810 811 812 812 812 811 812 814 816 818 821 823 826 828 830 831 831 831 832 833 834 834 835
782 782 783 784 786 788 790 791 793 794 796 798 800 801 802 802 803 804 804 805 806 807 808 807 806 808 809 811 813 816 820 822 824 825 826 827 828 828 829 829 830 831
780 780 780 782 783 785 786 787 789 790 792 794 796 797 798 798 799 799 800 800 801 802 803 802 802 803 805 807 809 813 816 818 819 820 822 823 823 824 824 825 825 826
779 778 778 779 780 781 782 784 785 787 788 790 791 792 794 794 795 795 795 796 796 797 798 798 798 799 801 803 805 808 811 813 815 816 817 818 819 820 820 820 820 821
778 777 777 776 777 778 779 780 781 782 784 785 786 788 789 790 790 791 791 791 791 792 793 794 794 795 797 799 801 804 807 809 810 812 812 813 814 815 815 816 816 816
777 776 776 774 774 774 775 776 777 778 779 780 781 783 784 785 785 786 786 787 787 788 788 789 789 791 793 794 796 799 801 803 805 806 806 807 809 810 810 811 811 811